| time (UTC) | temp C | wind direction | speed KPH | gust KPH | rain 1hr cm | rain 24hr cm | rain mn cm | humidity % | barometer mb |
| 20260504160112 | 24 | 192 | 6.4 | 22.5 | 0.00 | 0.00 | 0.00 | 72 | 1016.9 |
| 20260504151039 | 22 | 165 | 11.3 | 32.2 | 0.00 | 0.00 | 0.00 | 75 | 1017.0 |
| 20260504150537 | 22 | 158 | 12.9 | 22.5 | 0.00 | 0.00 | 0.00 | 75 | 1017.3 |
| 20260504141003 | 20 | 184 | 6.4 | 14.5 | 0.00 | 0.00 | 0.00 | 79 | 1017.4 |
| 20260504140459 | 20 | 170 | 6.4 | 16.1 | 0.00 | 0.00 | 0.00 | 78 | 1017.2 |
| 20260504130424 | 17 | 170 | 4.8 | 11.3 | 0.00 | 0.00 | 0.00 | 81 | 1017.3 |
| 20260504110311 | 14 | 157 | 6.4 | 9.7 | 0.00 | 0.00 | 0.00 | 87 | 1017.0 |
| 20260504100229 | 14 | 170 | 8.0 | 8.0 | 0.00 | 0.00 | 0.00 | 88 | 1016.5 |
| 20260504081622 | 15 | 164 | 8.0 | 12.9 | 0.00 | 0.00 | 0.00 | 86 | 1017.4 |
| 20260504081118 | 15 | 174 | 6.4 | 12.9 | 0.00 | 0.00 | 0.00 | 86 | 1017.5 |
| 20260504080615 | 15 | 169 | 8.0 | 9.7 | 0.00 | 0.00 | 0.00 | 86 | 1017.5 |
| 20260504080111 | 15 | 166 | 6.4 | 9.7 | 0.00 | 0.00 | 0.00 | 86 | 1017.7 |
| 20260504050427 | 16 | 169 | 9.7 | 16.1 | 0.00 | 0.00 | 0.00 | 81 | 1019.6 |
| 20260504045924 | 16 | 160 | 11.3 | 14.5 | 0.00 | 0.00 | 0.00 | 81 | 1019.9 |
| 20260504045420 | 16 | 164 | 8.0 | 16.1 | 0.00 | 0.00 | 0.00 | 81 | 1019.8 |
| 20260504044916 | 17 | 166 | 8.0 | 12.9 | 0.00 | 0.00 | 0.00 | 80 | 1020.3 |
| 20260504044414 | 17 | 164 | 6.4 | 11.3 | 0.00 | 0.00 | 0.00 | 80 | 1020.2 |
| 20260504043911 | 17 | 158 | 4.8 | 11.3 | 0.00 | 0.00 | 0.00 | 80 | 1020.1 |
| 20260504043408 | 17 | 171 | 8.0 | 11.3 | 0.00 | 0.00 | 0.00 | 79 | 1020.1 |
| 20260504042906 | 17 | 164 | 8.0 | 9.7 | 0.00 | 0.00 | 0.00 | 79 | 1020.2 |
| 20260504042402 | 17 | 179 | 8.0 | 14.5 | 0.00 | 0.00 | 0.00 | 78 | 1020.0 |
| 20260504041858 | 17 | 161 | 8.0 | 12.9 | 0.00 | 0.00 | 0.00 | 78 | 1020.0 |
| 20260504041354 | 17 | 169 | 8.0 | 12.9 | 0.00 | 0.00 | 0.00 | 78 | 1020.2 |
| 20260504040850 | 17 | 167 | 9.7 | 16.1 | 0.00 | 0.00 | 0.00 | 77 | 1020.0 |
| 20260504040348 | 17 | 163 | 8.0 | 11.3 | 0.00 | 0.00 | 0.00 | 77 | 1020.1 |
| 20260504035844 | 17 | 178 | 6.4 | 14.5 | 0.00 | 0.00 | 0.00 | 76 | 1020.3 |
| 20260504035342 | 17 | 167 | 8.0 | 14.5 | 0.00 | 0.00 | 0.00 | 75 | 1020.1 |
| 20260504034838 | 17 | 168 | 8.0 | 12.9 | 0.00 | 0.00 | 0.00 | 75 | 1020.4 |
| 20260504034336 | 18 | 182 | 6.4 | 12.9 | 0.00 | 0.00 | 0.00 | 74 | 1020.1 |
| 20260504033833 | 18 | 167 | 8.0 | 14.5 | 0.00 | 0.00 | 0.00 | 74 | 1020.3 |
| 20260504033331 | 18 | 165 | 8.0 | 16.1 | 0.00 | 0.00 | 0.00 | 73 | 1020.2 |
| 20260504032827 | 18 | 185 | 9.7 | 12.9 | 0.00 | 0.00 | 0.00 | 72 | 1020.2 |
| 20260504032325 | 18 | 167 | 8.0 | 16.1 | 0.00 | 0.00 | 0.00 | 72 | 1020.1 |
| 20260504031821 | 18 | 177 | 8.0 | 17.7 | 0.00 | 0.00 | 0.00 | 71 | 1019.8 |
| 20260504031319 | 18 | 162 | 12.9 | 17.7 | 0.00 | 0.00 | 0.00 | 70 | 1019.8 |
| 20260504030815 | 18 | 173 | 9.7 | 14.5 | 0.00 | 0.00 | 0.00 | 70 | 1019.9 |
| 20260504030312 | 19 | 178 | 8.0 | 16.1 | 0.00 | 0.00 | 0.00 | 69 | 1019.9 |
| 20260504025808 | 19 | 191 | 11.3 | 17.7 | 0.00 | 0.00 | 0.00 | 69 | 1020.0 |
| 20260504025306 | 19 | 169 | 9.7 | 19.3 | 0.00 | 0.00 | 0.00 | 69 | 1019.7 |
| 20260504024802 | 19 | 163 | 11.3 | 17.7 | 0.00 | 0.00 | 0.00 | 69 | 1019.9 |
| 20260504024258 | 19 | 159 | 6.4 | 17.7 | 0.00 | 0.00 | 0.00 | 68 | 1019.7 |
| 20260504023755 | 20 | 179 | 9.7 | 16.1 | 0.00 | 0.00 | 0.00 | 68 | 1019.6 |
| 20260504023252 | 20 | 166 | 11.3 | 17.7 | 0.00 | 0.00 | 0.00 | 67 | 1019.5 |
| 20260504022748 | 20 | 164 | 8.0 | 17.7 | 0.00 | 0.00 | 0.00 | 67 | 1019.5 |
| 20260504022244 | 20 | 177 | 8.0 | 14.5 | 0.00 | 0.00 | 0.00 | 67 | 1019.4 |
| 20260504021741 | 20 | 168 | 16.1 | 20.9 | 0.00 | 0.00 | 0.00 | 67 | 1019.4 |
| 20260504021238 | 20 | 166 | 11.3 | 14.5 | 0.00 | 0.00 | 0.00 | 67 | 1019.2 |
| 20260504020735 | 20 | 163 | 11.3 | 20.9 | 0.00 | 0.00 | 0.00 | 67 | 1019.3 |
| 20260504020232 | 20 | 160 | 19.3 | 19.3 | 0.00 | 0.00 | 0.00 | 66 | 1019.4 |
| 20260504015728 | 20 | 167 | 11.3 | 14.5 | 0.00 | 0.00 | 0.00 | 66 | 1019.3 |
| 20260504015225 | 20 | 169 | 8.0 | 14.5 | 0.00 | 0.00 | 0.00 | 65 | 1019.3 |
| 20260504014720 | 20 | 191 | 9.7 | 16.1 | 0.00 | 0.00 | 0.00 | 64 | 1019.3 |
| 20260504014217 | 20 | 174 | 11.3 | 17.7 | 0.00 | 0.00 | 0.00 | 62 | 1019.3 |
| 20260504013715 | 20 | 166 | 9.7 | 16.1 | 0.00 | 0.00 | 0.00 | 61 | 1019.0 |
| 20260504013212 | 21 | 157 | 9.7 | 14.5 | 0.00 | 0.00 | 0.00 | 59 | 1019.0 |
| 20260504012709 | 20 | 130 | 17.7 | 17.7 | 0.00 | 0.00 | 0.00 | 58 | 1019.0 |
| 20260504012207 | 21 | 117 | 3.2 | 4.8 | 0.00 | 0.00 | 0.00 | 57 | 1019.0 |
| 20260504011703 | 21 | 138 | 1.6 | 4.8 | 0.00 | 0.00 | 0.00 | 56 | 1018.7 |
| 20260504011200 | 21 | 133 | 3.2 | 6.4 | 0.00 | 0.00 | 0.00 | 55 | 1018.9 |
| 20260504010656 | 21 | 111 | 1.6 | 4.8 | 0.00 | 0.00 | 0.00 | 55 | 1018.6 |
| 20260504010152 | 21 | 137 | 1.6 | 3.2 | 0.00 | 0.00 | 0.00 | 56 | 1018.6 |
| 20260504005649 | 21 | 99 | 1.6 | 4.8 | 0.00 | 0.00 | 0.00 | 55 | 1018.6 |
| 20260504005145 | 21 | 93 | 0.0 | 4.8 | 0.00 | 0.00 | 0.00 | 55 | 1018.7 |
| 20260504004644 | 22 | 147 | 0.0 | 3.2 | 0.00 | 0.00 | 0.00 | 55 | 1019.1 |
| 20260504004140 | 22 | 162 | 3.2 | 4.8 | 0.00 | 0.00 | 0.00 | 54 | 1019.1 |
| 20260504003637 | 23 | 165 | 3.2 | 4.8 | 0.00 | 0.00 | 0.00 | 53 | 1019.0 |
| 20260504003133 | 23 | 185 | 4.8 | 8.0 | 0.00 | 0.00 | 0.00 | 51 | 1019.1 |
| 20260504002630 | 23 | 173 | 4.8 | 8.0 | 0.00 | 0.00 | 0.00 | 50 | 1019.3 |
| 20260504002128 | 24 | 173 | 4.8 | 8.0 | 0.00 | 0.00 | 0.00 | 50 | 1019.2 |
| 20260504001626 | 24 | 165 | 4.8 | 9.7 | 0.00 | 0.00 | 0.00 | 48 | 1019.4 |
| 20260504001121 | 23 | 168 | 3.2 | 6.4 | 0.00 | 0.00 | 0.00 | 49 | 1019.1 |
| 20260504000619 | 23 | 171 | 6.4 | 8.0 | 0.00 | 0.00 | 0.00 | 49 | 1019.3 |
| 20260504000116 | 24 | 166 | 6.4 | 12.9 | 0.00 | 0.00 | 0.00 | 47 | 1019.4 |
| 20260503235614 | 25 | 168 | 8.0 | 11.3 | 0.00 | 0.00 | 0.00 | 46 | 1019.2 |
| 20260503235110 | 24 | 173 | 8.0 | 9.7 | 0.00 | 0.00 | 0.00 | 45 | 1019.4 |
| 20260503234609 | 24 | 172 | 11.3 | 16.1 | 0.00 | 0.00 | 0.00 | 44 | 1019.5 |
| 20260503234106 | 24 | 145 | 9.7 | 14.5 | 0.00 | 0.00 | 0.00 | 45 | 1019.3 |
| 20260503233603 | 23 | 180 | 4.8 | 12.9 | 0.00 | 0.00 | 0.00 | 44 | 1019.3 |
| 20260503233059 | 24 | 171 | 9.7 | 14.5 | 0.00 | 0.00 | 0.00 | 44 | 1019.3 |
| 20260503232556 | 24 | 179 | 8.0 | 14.5 | 0.00 | 0.00 | 0.00 | 43 | 1019.3 |
| 20260503232053 | 25 | 166 | 11.3 | 12.9 | 0.00 | 0.00 | 0.00 | 43 | 1019.5 |
| 20260503231551 | 25 | 192 | 8.0 | 11.3 | 0.00 | 0.00 | 0.00 | 41 | 1019.4 |
| 20260503231048 | 25 | 162 | 11.3 | 12.9 | 0.00 | 0.00 | 0.00 | 42 | 1019.5 |
| 20260503230544 | 25 | 169 | 11.3 | 12.9 | 0.00 | 0.00 | 0.00 | 40 | 1019.7 |
| 20260503230042 | 25 | 169 | 6.4 | 16.1 | 0.00 | 0.00 | 0.00 | 40 | 1019.5 |
| 20260503225538 | 25 | 180 | 8.0 | 12.9 | 0.00 | 0.00 | 0.00 | 41 | 1019.8 |
| 20260503225033 | 25 | 191 | 6.4 | 14.5 | 0.00 | 0.00 | 0.00 | 41 | 1019.7 |
| 20260503224531 | 25 | 175 | 8.0 | 22.5 | 0.00 | 0.00 | 0.00 | 40 | 1019.6 |
| 20260503224028 | 25 | 199 | 16.1 | 17.7 | 0.00 | 0.00 | 0.00 | 40 | 1019.7 |
| 20260503223526 | 25 | 164 | 8.0 | 12.9 | 0.00 | 0.00 | 0.00 | 41 | 1019.9 |
| 20260503223021 | 25 | 179 | 6.4 | 17.7 | 0.00 | 0.00 | 0.00 | 41 | 1020.0 |
| 20260503222520 | 26 | 187 | 9.7 | 11.3 | 0.00 | 0.00 | 0.00 | 42 | 1020.0 |
| 20260503222018 | 25 | 139 | 11.3 | 12.9 | 0.00 | 0.00 | 0.00 | 39 | 1020.0 |
| 20260503221516 | 25 | 174 | 9.7 | 14.5 | 0.00 | 0.00 | 0.00 | 39 | 1020.3 |
| 20260503221013 | 25 | 164 | 11.3 | 19.3 | 0.00 | 0.00 | 0.00 | 39 | 1020.3 |
| 20260503220509 | 25 | 195 | 11.3 | 20.9 | 0.00 | 0.00 | 0.00 | 38 | 1020.1 |
| 20260503220006 | 25 | 148 | 11.3 | 20.9 | 0.00 | 0.00 | 0.00 | 40 | 1020.3 |
| 20260503215503 | 25 | 164 | 9.7 | 12.9 | 0.00 | 0.00 | 0.00 | 39 | 1020.4 |
| 20260503215000 | 25 | 168 | 12.9 | 20.9 | 0.00 | 0.00 | 0.00 | 39 | 1020.4 |
| 20260503214458 | 25 | 176 | 8.0 | 20.9 | 0.00 | 0.00 | 0.00 | 39 | 1020.6 |
| 20260503213955 | 25 | 202 | 11.3 | 17.7 | 0.00 | 0.00 | 0.00 | 40 | 1020.6 |
| 20260503213453 | 25 | 204 | 14.5 | 19.3 | 0.00 | 0.00 | 0.00 | 42 | 1020.6 |
| 20260503212949 | 25 | 180 | 11.3 | 16.1 | 0.00 | 0.00 | 0.00 | 43 | 1020.7 |
| 20260503212447 | 25 | 167 | 8.0 | 19.3 | 0.00 | 0.00 | 0.00 | 44 | 1020.9 |
| 20260503211944 | 25 | 164 | 9.7 | 19.3 | 0.00 | 0.00 | 0.00 | 45 | 1021.0 |
| 20260503211441 | 25 | 214 | 4.8 | 12.9 | 0.00 | 0.00 | 0.00 | 46 | 1020.8 |
| 20260503210937 | 25 | 163 | 16.1 | 24.1 | 0.00 | 0.00 | 0.00 | 44 | 1021.0 |
| 20260503210433 | 25 | 180 | 6.4 | 22.5 | 0.00 | 0.00 | 0.00 | 44 | 1021.3 |
| 20260503205928 | 25 | 207 | 8.0 | 22.5 | 0.00 | 0.00 | 0.00 | 47 | 1021.1 |
| 20260503205425 | 25 | 196 | 12.9 | 22.5 | 0.00 | 0.00 | 0.00 | 44 | 1021.3 |
| 20260503204921 | 25 | 142 | 12.9 | 20.9 | 0.00 | 0.00 | 0.00 | 43 | 1021.3 |
| 20260503204419 | 25 | 163 | 17.7 | 20.9 | 0.00 | 0.00 | 0.00 | 43 | 1021.2 |
| 20260503203916 | 25 | 156 | 12.9 | 16.1 | 0.00 | 0.00 | 0.00 | 44 | 1021.5 |
| 20260503203413 | 25 | 192 | 11.3 | 16.1 | 0.00 | 0.00 | 0.00 | 44 | 1021.7 |
| 20260503202910 | 25 | 175 | 9.7 | 19.3 | 0.00 | 0.00 | 0.00 | 43 | 1021.8 |
| 20260503202408 | 26 | 159 | 14.5 | 20.9 | 0.00 | 0.00 | 0.00 | 45 | 1021.8 |
| 20260503201906 | 25 | 154 | 8.0 | 14.5 | 0.00 | 0.00 | 0.00 | 43 | 1021.7 |
| 20260503201403 | 25 | 170 | 8.0 | 17.7 | 0.00 | 0.00 | 0.00 | 40 | 1021.9 |
| 20260503200901 | 25 | 166 | 11.3 | 24.1 | 0.00 | 0.00 | 0.00 | 42 | 1022.0 |
| 20260503200356 | 25 | 168 | 12.9 | 19.3 | 0.00 | 0.00 | 0.00 | 42 | 1021.9 |
| 20260503195854 | 25 | 162 | 8.0 | 17.7 | 0.00 | 0.00 | 0.00 | 42 | 1022.0 |
| 20260503195350 | 25 | 164 | 4.8 | 8.0 | 0.00 | 0.00 | 0.00 | 40 | 1022.1 |
| 20260503194847 | 25 | 135 | 8.0 | 16.1 | 0.00 | 0.00 | 0.00 | 45 | 1022.1 |
| 20260503194343 | 25 | 134 | 4.8 | 9.7 | 0.00 | 0.00 | 0.00 | 45 | 1022.1 |
| 20260503193840 | 25 | 136 | 8.0 | 14.5 | 0.00 | 0.00 | 0.00 | 48 | 1022.5 |
| 20260503193335 | 25 | 99 | 14.5 | 20.9 | 0.00 | 0.00 | 0.00 | 42 | 1022.3 |
| 20260503192831 | 25 | 103 | 16.1 | 17.7 | 0.00 | 0.00 | 0.00 | 43 | 1022.4 |
| 20260503192327 | 25 | 137 | 8.0 | 16.1 | 0.00 | 0.00 | 0.00 | 45 | 1022.5 |
| 20260503191824 | 25 | 208 | 1.6 | 25.7 | 0.00 | 0.00 | 0.00 | 43 | 1022.7 |
| 20260503191321 | 25 | 155 | 6.4 | 14.5 | 0.00 | 0.00 | 0.00 | 45 | 1022.7 |
| 20260503190817 | 25 | 111 | 19.3 | 22.5 | 0.00 | 0.00 | 0.00 | 52 | 1022.6 |
| 20260503190314 | 25 | 222 | 14.5 | 19.3 | 0.00 | 0.00 | 0.00 | 48 | 1022.8 |
| 20260503185812 | 25 | 98 | 8.0 | 22.5 | 0.00 | 0.00 | 0.00 | 45 | 1022.9 |
| 20260503185307 | 25 | 149 | 17.7 | 25.7 | 0.00 | 0.00 | 0.00 | 45 | 1022.9 |
| 20260503184802 | 25 | 121 | 1.6 | 14.5 | 0.00 | 0.00 | 0.00 | 43 | 1022.9 |
| 20260503184258 | 25 | 197 | 6.4 | 17.7 | 0.00 | 0.00 | 0.00 | 43 | 1023.2 |
| 20260503183754 | 25 | 224 | 1.6 | 12.9 | 0.00 | 0.00 | 0.00 | 42 | 1023.1 |
| 20260503183252 | 25 | 159 | 9.7 | 12.9 | 0.00 | 0.00 | 0.00 | 43 | 1023.2 |
| 20260503182749 | 25 | 180 | 6.4 | 16.1 | 0.00 | 0.00 | 0.00 | 48 | 1023.2 |
| 20260503182248 | 25 | 186 | 8.0 | 17.7 | 0.00 | 0.00 | 0.00 | 47 | 1023.2 |
| 20260503181744 | 25 | 227 | 11.3 | 12.9 | 0.00 | 0.00 | 0.00 | 46 | 1023.3 |
| 20260503181242 | 25 | 182 | 4.8 | 14.5 | 0.00 | 0.00 | 0.00 | 46 | 1023.5 |
| 20260503180738 | 24 | 202 | 4.8 | 25.7 | 0.00 | 0.00 | 0.00 | 46 | 1023.5 |
| 20260503180236 | 24 | 165 | 4.8 | 16.1 | 0.00 | 0.00 | 0.00 | 45 | 1023.6 |
| 20260503175732 | 24 | 207 | 12.9 | 16.1 | 0.00 | 0.00 | 0.00 | 44 | 1023.7 |
| 20260503175231 | 25 | 165 | 6.4 | 14.5 | 0.00 | 0.00 | 0.00 | 46 | 1023.9 |
| 20260503174726 | 24 | 203 | 8.0 | 12.9 | 0.00 | 0.00 | 0.00 | 46 | 1023.9 |
| 20260503174224 | 24 | 109 | 8.0 | 11.3 | 0.00 | 0.00 | 0.00 | 43 | 1024.0 |
| 20260503173719 | 24 | 170 | 6.4 | 19.3 | 0.00 | 0.00 | 0.00 | 45 | 1024.0 |
| 20260503173215 | 25 | 156 | 6.4 | 17.7 | 0.00 | 0.00 | 0.00 | 45 | 1024.1 |
| 20260503172712 | 25 | 156 | 6.4 | 11.3 | 0.00 | 0.00 | 0.00 | 43 | 1024.2 |
| 20260503172209 | 24 | 145 | 8.0 | 14.5 | 0.00 | 0.00 | 0.00 | 43 | 1024.3 |
| 20260503171705 | 24 | 158 | 8.0 | 17.7 | 0.00 | 0.00 | 0.00 | 43 | 1024.3 |
| 20260503171203 | 23 | 171 | 11.3 | 17.7 | 0.00 | 0.00 | 0.00 | 42 | 1024.4 |
| 20260503170700 | 24 | 143 | 6.4 | 14.5 | 0.00 | 0.00 | 0.00 | 41 | 1024.6 |
| 20260503170156 | 25 | 128 | 4.8 | 16.1 | 0.00 | 0.00 | 0.00 | 47 | 1024.4 |